[[{"header":{"parameterUnit":"m.s-1","parameterCategory":1,"la1":30.2991,"la2":30.254,"lo1":-89.0895,"lo2":-89.0444,"dy":0.0017,"dx":0.0017,"nx":28,"ny":28,"refTime":"2023-10-02T09:00:00:Z","depth":0,"parameterNumber":2,"parameterNumberName":"U-component_of_WINDS"},"data":[0,0,0,0,0,0,0,0,0,0,0,0,0,0,0,0,0,0,0,0,0,0,0,0,0,0,0,0,0,0,0,0,0,0,0,0,0,0,0,0,0,0,0,0,0,0,0,0,0,0,0,0,0,0,0,0,0,0,-4.9127,-4.9127,0,-4.9075,-4.9075,-4.9074,-4.8832,-4.8826,-4.8821,-4.8815,-4.8766,-4.877,-4.8774,0,0,0,0,0,0,0,0,0,0,0,0,0,-4.9022,-4.9025,-4.9127,-4.9127,-4.9126,-4.9075,-4.9075,-4.9074,-4.8833,-4.8826,-4.8819,-4.8813,-4.8765,-4.877,-4.8774,0,0,0,0,0,0,0,0,0,0,0,0,0,-4.9029,-4.9026,-4.9127,-4.9,-4.8988,-4.9075,-4.9075,-4.9074,-4.8835,-4.8826,-4.8817,-4.881,-4.8763,-4.8769,-4.8775,-4.8983,0,0,-4.8793,-4.8796,0,0,0,0,0,0,0,0,-4.9029,-4.9033,-4.9019,-4.9009,-4.8995,-4.8951,-4.9019,-4.9043,-4.8837,-4.8893,-4.8815,-4.8805,-4.8835,-4.8835,-4.8844,-4.8981,-4.8979,-4.8794,-4.8798,-4.88,-4.8802,0,0,0,0,0,0,0,-4.9029,-4.9034,-4.9107,-4.9019,-4.9005,-4.8946,-4.8938,-4.9023,-4.8913,-4.8887,-4.887,-4.8867,-4.8827,-4.8839,-4.8841,-4.8978,-4.8794,-4.8799,-4.8803,-4.8805,-4.9282,-4.9291,0,0,0,0,0,0,-4.9046,-4.9035,-4.9108,-4.9105,-4.8991,-4.8955,-4.8945,-4.8974,-4.8911,-4.8893,-4.8874,-4.8856,-4.8832,-4.8834,-4.8838,-4.9076,-4.88,-4.8806,-4.8809,-4.9273,-4.9284,-4.9294,0,0,0,0,0,0,-4.9044,-4.9054,-4.911,-4.9065,-4.9068,-4.8966,-4.9,-4.8978,-4.8989,-4.8901,-4.888,-4.8906,-4.8826,-4.883,-4.8948,-4.9071,-4.8808,-4.8814,-4.9262,-4.9276,-4.9289,-4.9555,0,0,0,0,0,0,-4.9042,-4.9055,-4.9132,-4.9069,-4.9071,-4.9221,-4.9008,-4.8983,-4.8999,-4.8975,-4.8925,-4.8909,-4.8819,-4.8941,-4.8954,-4.9074,-4.8819,-4.9251,-4.9269,-4.9285,-4.9534,-4.9576,-4.9611,0,0,0,0,0,-4.9039,-4.921,-4.9138,-4.9148,-4.9165,-4.9229,-4.923,-4.9122,-4.901,-4.9087,-4.9031,-4.891,-4.9056,-4.8955,-4.8968,-4.9092,-4.9243,-4.9264,-4.9283,-4.9517,-4.9568,-4.961,0,0,0,0,0,0,-4.9292,-4.92,-4.9118,-4.9273,-4.9261,-4.9188,-4.9281,-4.9179,-4.9199,-4.9176,-4.9043,-4.9034,-4.9172,-4.9144,-4.9033,-4.9289,-4.9129,-4.9153,-4.9302,-4.9349,-4.9387,-4.939,-4.8823,0,0,0,0,0,-4.9366,-4.9424,-4.934,-4.9486,-4.9483,-4.9385,-4.9408,-4.9326,-4.9308,-4.9302,-4.9254,-4.9242,-4.9285,-4.9316,-4.935,-4.953,-4.9515,-4.9622,-4.966,-4.9692,-4.9714,-4.9806,-4.9852,-4.9361,-4.9361,-4.936,0,0,-4.9519,-4.9476,-4.9521,-4.9536,-4.9516,-4.958,-4.9381,-4.9458,-4.9504,-4.9314,-4.9421,-4.9387,-4.9365,-4.9515,-4.9579,-4.9496,-4.9847,-4.9718,-4.9744,-4.9748,-4.9832,-4.9878,-4.992,-4.9375,-4.9372,-4.937,0,0,-4.983,-4.9804,-4.9921,-4.9905,-4.9878,-4.9811,-4.984,-4.9783,-4.9751,-4.9858,-4.9716,-4.9771,-4.9847,-4.9837,-4.9842,-5.0151,-5.0041,-5.0167,-5.0365,-5.0457,-5.0496,-5.0529,-5.0638,-5.0679,-5.0189,-5.019,-5.019,0,-5.0024,-5.0113,-4.9994,-5.0079,-5.009,-4.992,-5.0038,-5.003,-5.0017,-5.0028,-4.9936,-5.0028,-5.0001,-5.0146,-5.0222,-5.0232,-5.026,-5.017,-5.0499,-5.0532,-5.0562,-5.0664,-5.0705,-5.0205,-5.0203,-5.0202,-5.02,0,-5.0352,-5.0416,-5.0514,-5.0504,-5.0526,-5.0628,-5.0525,-5.0563,-5.048,-5.0424,-5.0534,-5.0497,-5.052,-5.0549,-5.047,-5.0684,-5.0633,-5.0523,-5.0358,-5.0626,-5.0719,-5.0758,-5.0227,-5.0221,-5.0217,-5.0213,0,0,-5.0818,-5.0741,-5.0779,-5.0771,-5.073,-5.0777,-5.0873,-5.0894,-5.0928,-5.0926,-5.1001,-5.1071,-5.0968,-5.0974,-5.0892,-5.0973,-5.1219,-5.0852,-5.085,-5.092,-5.1451,-5.1532,-5.158,-5.1147,-5.1154,-5.1159,-5.1452,0,-5.1113,-5.1267,-5.1164,-5.1336,-5.1394,-5.1235,-5.1317,-5.1302,-5.1252,-5.1295,-5.1241,-5.1291,-5.1153,-5.1155,-5.1228,-5.1174,-5.1323,-5.1152,-5.1216,-5.122,-5.1224,-5.1629,-5.1715,-5.1993,-5.1488,-5.1494,-5.1499,0,-5.1477,-5.1488,-5.1666,-5.1612,-5.1632,-5.1708,-5.1719,-5.1763,-5.1742,-5.17,-5.1708,-5.1606,-5.1696,-5.1537,-5.1659,-5.1544,-5.1565,-5.1543,-5.1551,-5.1551,-5.1374,-5.1638,-5.2079,-5.212,-5.1556,-5.1551,-5.1547,0,-5.1797,-5.1857,-5.197,-5.197,-5.191,-5.1967,-5.1945,-5.1916,-5.1936,-5.1947,-5.1958,-5.1982,-5.1994,-5.2015,-5.1922,-5.1814,-5.2057,-5.1889,-5.2024,-5.2027,-5.208,-5.2077,-5.2529,-5.2099,-5.2098,-5.2097,-5.2096,0,-5.2135,-5.2249,-5.2113,-5.2183,-5.2306,-5.2188,-5.2315,-5.2276,-5.2252,-5.2312,-5.2178,-5.2238,-5.2113,-5.2161,-5.2089,-5.2201,-5.2208,-5.2177,-5.2156,-5.2188,-5.2192,-5.2197,-5.2175,-5.2108,-5.2106,-5.2104,-5.2102,0,-5.2511,-5.2425,-5.2537,-5.2472,-5.2459,-5.2553,-5.2497,-5.256,-5.2502,-5.258,-5.2592,-5.2502,-5.2551,-5.2461,-5.2499,-5.2451,-5.2607,-5.2558,-5.2614,-5.2598,-5.2737,-5.2725,-5.3206,-5.3263,-5.28,-5.2804,-5.2808,0,-5.2731,-5.2815,-5.2759,-5.2789,-5.2774,-5.2825,-5.2844,-5.2732,-5.2758,-5.2742,-5.2807,-5.2844,-5.2868,-5.2954,-5.2893,-5.2922,-5.287,-5.3037,-5.2874,-5.2903,-5.287,-5.2865,-5.2873,-5.307,-5.3076,-5.308,-5.3084,0,-5.3131,-5.3084,-5.3115,-5.3134,-5.316,-5.3169,-5.3169,-5.3202,-5.3083,-5.312,-5.3167,-5.3186,-5.3225,-5.3264,-5.3278,-5.3257,-5.3152,-5.3137,-5.3169,-5.32,-5.3228,-5.3213,-5.2703,-5.3125,-5.3121,-5.3118,-5.3116,-5.3114,-5.3433,-5.35,-5.3471,-5.3511,-5.3499,-5.3502,-5.3557,-5.3506,-5.3543,-5.3565,-5.3498,-5.3562,-5.354,-5.3548,-5.3538,-5.3587,-5.3513,-5.356,-5.3572,-5.3585,-5.3606,-5.3224,-5.359,-5.3588,-5.3587,-5.3586,-5.3585,0,-5.3823,-5.3796,-5.3835,-5.3838,-5.387,-5.3768,-5.3763,-5.3797,-5.3854,-5.3842,-5.3869,-5.3924,-5.3962,-5.3905,-5.3933,-5.3983,-5.3936,-5.3994,-5.3988,-5.3985,-5.3672,-5.364,-5.4032,-5.4032,-5.4032,-5.4032,-5.4032,-5.4032,-5.4029,-5.4136,-5.4087,-5.4187,-5.416,-5.422,-5.4226,-5.4228,-5.4218,-5.4285,-5.4315,-5.4278,-5.4248,-5.4273,-5.4304,-5.4286,-5.4302,-5.4377,-5.4343,-5.4051,-5.4007,-5.3965,-5.3934,-5.4382,-5.4383,-5.4651,-5.4654,-5.4656]},{"header":{"parameterUnit":"m.s-1","parameterCategory":1,"la1":30.2991,"la2":30.254,"lo1":-89.0895,"lo2":-89.0444,"dy":0.0017,"dx":0.0017,"nx":28,"ny":28,"refTime":"2023-10-02T09:00:00:Z","depth":0,"parameterNumber":3,"parameterNumberName":"V-component_of_WINDS"},"data":[0,0,0,0,0,0,0,0,0,0,0,0,0,0,0,0,0,0,0,0,0,0,0,0,0,0,0,0,0,0,0,0,0,0,0,0,0,0,0,0,0,0,0,0,0,0,0,0,0,0,0,0,0,0,0,0,0,0,-0.4891,-0.4892,0,-0.4938,-0.4938,-0.4939,-0.4993,-0.4994,-0.4994,-0.4995,-0.504,-0.504,-0.504,0,0,0,0,0,0,0,0,0,0,0,0,0,-0.4846,-0.4846,-0.4891,-0.4892,-0.4892,-0.4937,-0.4938,-0.4939,-0.4993,-0.4994,-0.4995,-0.4995,-0.504,-0.504,-0.5041,0,0,0,0,0,0,0,0,0,0,0,0,0,-0.4876,-0.4846,-0.4891,-0.4925,-0.4928,-0.4937,-0.4938,-0.4939,-0.4992,-0.4994,-0.4995,-0.4996,-0.5039,-0.504,-0.5041,-0.5019,0,0,-0.5042,-0.5043,0,0,0,0,0,0,0,0,-0.4874,-0.4877,-0.4919,-0.4923,-0.4926,-0.4961,-0.4938,-0.4966,-0.4992,-0.4968,-0.4995,-0.4997,-0.5012,-0.5015,-0.5021,-0.5022,-0.5023,-0.5043,-0.5043,-0.5043,-0.5043,0,0,0,0,0,0,0,-0.4872,-0.4876,-0.491,-0.492,-0.4924,-0.4936,-0.4942,-0.4944,-0.4982,-0.497,-0.4974,-0.4979,-0.5014,-0.502,-0.5022,-0.5024,-0.5043,-0.5043,-0.5043,-0.5044,-0.5008,-0.5006,0,0,0,0,0,0,-0.4865,-0.4874,-0.4908,-0.4911,-0.4903,-0.4936,-0.4942,-0.4948,-0.4983,-0.4989,-0.4978,-0.4981,-0.5019,-0.5022,-0.5024,-0.5001,-0.5043,-0.5044,-0.5044,-0.5009,-0.5007,-0.5006,0,0,0,0,0,0,-0.4864,-0.4868,-0.4906,-0.4893,-0.4899,-0.4936,-0.4942,-0.4949,-0.4955,-0.4989,-0.4995,-0.4977,-0.502,-0.5023,-0.502,-0.5003,-0.5044,-0.5045,-0.5011,-0.5008,-0.5007,-0.4954,0,0,0,0,0,0,-0.4863,-0.4867,-0.4861,-0.4893,-0.49,-0.4902,-0.4941,-0.4949,-0.4956,-0.4961,-0.499,-0.4995,-0.5021,-0.5019,-0.5021,-0.5005,-0.5045,-0.5012,-0.501,-0.5007,-0.4958,-0.4951,-0.4945,0,0,0,0,0,-0.4861,-0.4844,-0.486,-0.4864,-0.4893,-0.4901,-0.4905,-0.4936,-0.4954,-0.4947,-0.4969,-0.4995,-0.5004,-0.5018,-0.5021,-0.5005,-0.5013,-0.501,-0.5007,-0.4961,-0.4952,-0.4945,0,0,0,0,0,0,-0.4808,-0.4849,-0.4867,-0.4861,-0.4877,-0.4911,-0.4903,-0.4926,-0.4937,-0.4941,-0.4977,-0.4983,-0.4975,-0.499,-0.5004,-0.4985,-0.5013,-0.501,-0.4976,-0.4968,-0.4962,-0.4959,-0.5046,0,0,0,0,0,-0.4796,-0.4801,-0.4836,-0.4826,-0.4834,-0.4866,-0.4872,-0.4893,-0.4912,-0.4919,-0.494,-0.4956,-0.4963,-0.4966,-0.4974,-0.496,-0.4966,-0.495,-0.4943,-0.4938,-0.4935,-0.4927,-0.492,-0.4996,-0.4996,-0.4996,0,0,-0.4771,-0.4793,-0.4794,-0.4816,-0.4832,-0.4835,-0.4872,-0.4874,-0.4876,-0.4919,-0.4917,-0.4933,-0.4953,-0.4943,-0.494,-0.4955,-0.4915,-0.4934,-0.4929,-0.493,-0.4923,-0.4916,-0.491,-0.4994,-0.4994,-0.4995,0,0,-0.4726,-0.4744,-0.4738,-0.4752,-0.4775,-0.4797,-0.4795,-0.4824,-0.4837,-0.4836,-0.4867,-0.4869,-0.488,-0.4893,-0.4901,-0.4858,-0.4882,-0.4859,-0.4826,-0.4817,-0.4811,-0.4806,-0.479,-0.4784,-0.4856,-0.4856,-0.4856,0,-0.4692,-0.4699,-0.4731,-0.4731,-0.4739,-0.4778,-0.4771,-0.4783,-0.4806,-0.481,-0.4827,-0.484,-0.4856,-0.485,-0.4839,-0.4844,-0.4842,-0.4857,-0.481,-0.4805,-0.4801,-0.4786,-0.478,-0.4853,-0.4854,-0.4854,-0.4854,0,-0.4654,-0.4658,-0.465,-0.4672,-0.4679,-0.4675,-0.4706,-0.4709,-0.4729,-0.4749,-0.4746,-0.4766,-0.4778,-0.4778,-0.4798,-0.4774,-0.4782,-0.4803,-0.4832,-0.479,-0.4776,-0.4771,-0.4849,-0.485,-0.4851,-0.4852,0,0,-0.458,-0.4619,-0.4616,-0.4625,-0.4652,-0.4655,-0.4652,-0.4664,-0.4665,-0.468,-0.4677,-0.4685,-0.4704,-0.4713,-0.4734,-0.4726,-0.469,-0.4749,-0.475,-0.4737,-0.4663,-0.4647,-0.464,-0.4705,-0.4705,-0.4704,-0.4661,0,-0.454,-0.4538,-0.4567,-0.4556,-0.4559,-0.4595,-0.4592,-0.4607,-0.4624,-0.4628,-0.4647,-0.4651,-0.4677,-0.4682,-0.4676,-0.4696,-0.4676,-0.4699,-0.4702,-0.4702,-0.4697,-0.4633,-0.4616,-0.4575,-0.4656,-0.4655,-0.4654,0,-0.4494,-0.4506,-0.4496,-0.4521,-0.4524,-0.4521,-0.4533,-0.4537,-0.4554,-0.4567,-0.4575,-0.46,-0.4596,-0.4623,-0.4619,-0.4634,-0.4636,-0.4646,-0.4645,-0.4647,-0.4676,-0.4632,-0.4562,-0.4556,-0.4647,-0.4647,-0.4648,0,-0.444,-0.4453,-0.4449,-0.4456,-0.4486,-0.4482,-0.4495,-0.4513,-0.4518,-0.4528,-0.4531,-0.4541,-0.4546,-0.4552,-0.4578,-0.4595,-0.4569,-0.4599,-0.4579,-0.4578,-0.4573,-0.4573,-0.4502,-0.4574,-0.4574,-0.4574,-0.4575,0,-0.4393,-0.4385,-0.4425,-0.4422,-0.4413,-0.4445,-0.4435,-0.4451,-0.4466,-0.4466,-0.4496,-0.4495,-0.4529,-0.4531,-0.455,-0.4543,-0.4545,-0.4554,-0.456,-0.4552,-0.455,-0.4554,-0.4558,-0.4573,-0.4573,-0.4573,-0.4574,0,-0.4332,-0.4358,-0.4355,-0.4383,-0.439,-0.4382,-0.4406,-0.4403,-0.4421,-0.442,-0.4422,-0.445,-0.4454,-0.448,-0.4489,-0.4502,-0.4487,-0.4498,-0.4482,-0.4485,-0.4464,-0.4466,-0.4394,-0.4385,-0.4462,-0.4462,-0.4461,0,-0.43,-0.4295,-0.4322,-0.4324,-0.4335,-0.4338,-0.4343,-0.4372,-0.4376,-0.4394,-0.4389,-0.4395,-0.4402,-0.4405,-0.4426,-0.4433,-0.4444,-0.4418,-0.4445,-0.4437,-0.4443,-0.4443,-0.4442,-0.4413,-0.4412,-0.4411,-0.441,0,-0.4241,-0.4253,-0.426,-0.427,-0.4275,-0.4284,-0.4296,-0.4295,-0.4328,-0.433,-0.4334,-0.4339,-0.4348,-0.4353,-0.4364,-0.4375,-0.4397,-0.4401,-0.4397,-0.4389,-0.438,-0.4384,-0.4466,-0.4403,-0.4404,-0.4404,-0.4405,-0.4405,-0.4193,-0.419,-0.4208,-0.4213,-0.4225,-0.4234,-0.4232,-0.425,-0.4254,-0.4265,-0.4281,-0.4283,-0.4298,-0.4314,-0.4322,-0.4323,-0.4336,-0.433,-0.4329,-0.4327,-0.4322,-0.4379,-0.4325,-0.4325,-0.4325,-0.4326,-0.4326,0,-0.4135,-0.4148,-0.4153,-0.4167,-0.4171,-0.4192,-0.4205,-0.4206,-0.4207,-0.4219,-0.4225,-0.4228,-0.4233,-0.4253,-0.426,-0.4256,-0.4267,-0.4257,-0.4258,-0.4259,-0.431,-0.4313,-0.4248,-0.4248,-0.4248,-0.4248,-0.4248,-0.4248,-0.4106,-0.41,-0.4115,-0.4114,-0.4127,-0.4129,-0.4134,-0.4142,-0.4152,-0.4155,-0.4159,-0.4172,-0.4187,-0.4195,-0.4199,-0.4205,-0.4206,-0.4192,-0.4201,-0.4249,-0.4256,-0.4263,-0.4266,-0.4192,-0.4192,-0.415,-0.415,-0.415]}]]